| time (UTC) | temp C | wind direction | speed KPH | gust KPH | rain 1hr cm | rain 24hr cm | rain mn cm | humidity % | barometer mb |
| 20260903224529 | 22 | 203 | 24.1 | 37.0 | 0.00 | 0.00 | 0.00 | 34 | 1008.1 |
| 20260903223005 | 21 | 236 | 22.5 | 37.0 | 0.00 | 0.00 | 0.00 | 35 | 1008.2 |
| 20260903221503 | 21 | 211 | 12.9 | 35.4 | 0.00 | 0.00 | 0.00 | 37 | 1008.2 |
| 20260903220042 | 21 | 204 | 11.3 | 27.4 | 0.00 | 0.00 | 0.00 | 38 | 1008.2 |
| 20260903214541 | 21 | 166 | 4.8 | 24.1 | 0.00 | 0.00 | 0.00 | 40 | 1008.5 |
| 20260903213035 | 21 | 219 | 20.9 | 32.2 | 0.00 | 0.00 | 0.00 | 38 | 1008.7 |
| 20260903211523 | 21 | 215 | 17.7 | 32.2 | 0.00 | 0.00 | 0.00 | 37 | 1008.8 |
| 20260903210020 | 20 | 215 | 17.7 | 32.2 | 0.00 | 0.00 | 0.00 | 39 | 1008.9 |
| 20260903204517 | 20 | 145 | 12.9 | 29.0 | 0.00 | 0.00 | 0.00 | 39 | 1009.1 |
| 20260903203014 | 20 | 153 | 9.7 | 25.7 | 0.00 | 0.00 | 0.00 | 44 | 1009.3 |
| 20260903201613 | 19 | 210 | 14.5 | 30.6 | 0.00 | 0.00 | 0.00 | 45 | 1009.5 |
| 20260903200015 | 19 | 188 | 12.9 | 30.6 | 0.00 | 0.00 | 0.00 | 44 | 1009.7 |
| 20260903194514 | 19 | 221 | 19.3 | 30.6 | 0.00 | 0.00 | 0.00 | 47 | 1009.7 |
| 20260903193017 | 19 | 266 | 16.1 | 27.4 | 0.00 | 0.00 | 0.00 | 50 | 1009.8 |
| 20260903191611 | 18 | 204 | 17.7 | 32.2 | 0.00 | 0.00 | 0.00 | 53 | 1009.9 |
| 20260903190012 | 18 | 197 | 19.3 | 30.6 | 0.00 | 0.00 | 0.00 | 54 | 1010.1 |
| 20260903184508 | 18 | 191 | 24.1 | 35.4 | 0.00 | 0.00 | 0.00 | 51 | 1010.1 |
| 20260903183017 | 18 | 203 | 19.3 | 33.8 | 0.00 | 0.00 | 0.00 | 52 | 1010.1 |
| 20260903181604 | 18 | 245 | 24.1 | 29.0 | 0.00 | 0.00 | 0.00 | 51 | 1010.1 |
| 20260903180043 | 18 | 229 | 24.1 | 33.8 | 0.00 | 0.00 | 0.00 | 51 | 1010.1 |
| 20260903174540 | 17 | 244 | 17.7 | 24.1 | 0.00 | 0.00 | 0.00 | 57 | 1010.2 |
| 20260903173019 | 16 | 207 | 14.5 | 27.4 | 0.00 | 0.00 | 0.00 | 65 | 1010.2 |
| 20260903171519 | 16 | 245 | 19.3 | 27.4 | 0.00 | 0.00 | 0.00 | 62 | 1010.3 |
| 20260903170100 | 16 | 194 | 12.9 | 22.5 | 0.00 | 0.00 | 0.00 | 66 | 1010.2 |
| 20260903164558 | 15 | 252 | 14.5 | 25.7 | 0.00 | 0.00 | 0.00 | 65 | 1010.3 |
| 20260903163056 | 15 | 250 | 22.5 | 29.0 | 0.00 | 0.00 | 0.00 | 63 | 1010.3 |
| 20260903161538 | 15 | 219 | 20.9 | 30.6 | 0.00 | 0.00 | 0.00 | 65 | 1010.2 |
| 20260903160019 | 15 | 252 | 17.7 | 22.5 | 0.00 | 0.00 | 0.00 | 65 | 1010.1 |
| 20260903154516 | 15 | 214 | 11.3 | 17.7 | 0.00 | 0.00 | 0.00 | 68 | 1010.3 |
| 20260903153054 | 14 | 204 | 12.9 | 17.7 | 0.00 | 0.00 | 0.00 | 69 | 1010.5 |
| 20260903151553 | 13 | 207 | 9.7 | 16.1 | 0.00 | 0.00 | 0.00 | 69 | 1010.5 |
| 20260903150035 | 14 | 225 | 8.0 | 11.3 | 0.00 | 0.00 | 0.00 | 69 | 1010.5 |
| 20260903144530 | 13 | 177 | 4.8 | 11.3 | 0.00 | 0.00 | 0.00 | 71 | 1010.4 |
| 20260903143014 | 12 | 187 | 4.8 | 8.0 | 0.00 | 0.00 | 0.00 | 73 | 1010.3 |
| 20260903141513 | 11 | 87 | 1.6 | 4.8 | 0.00 | 0.00 | 0.00 | 78 | 1010.1 |
| 20260903140015 | 11 | 103 | 6.4 | 12.9 | 0.00 | 0.00 | 0.00 | 78 | 1009.8 |
| 20260903134508 | 11 | 110 | 4.8 | 9.7 | 0.00 | 0.00 | 0.00 | 75 | 1009.7 |
| 20260903133003 | 13 | 162 | 8.0 | 16.1 | 0.00 | 0.00 | 0.00 | 66 | 1009.4 |
| 20260903131600 | 13 | 293 | 12.9 | 27.4 | 0.00 | 0.00 | 0.00 | 67 | 1009.0 |
| 20260903130107 | 12 | 276 | 19.3 | 27.4 | 0.00 | 0.00 | 0.00 | 73 | 1008.9 |
| 20260903124606 | 11 | 204 | 9.7 | 12.9 | 0.00 | 0.00 | 0.00 | 79 | 1009.1 |
| 20260903123040 | 10 | 215 | 6.4 | 11.3 | 0.00 | 0.00 | 0.00 | 81 | 1009.1 |
| 20260903121549 | 10 | 257 | 6.4 | 9.7 | 0.00 | 0.00 | 0.00 | 79 | 1009.1 |
| 20260903120022 | 10 | 194 | 1.6 | 4.8 | 0.00 | 0.00 | 0.00 | 79 | 1009.1 |
| 20260903114518 | 11 | 274 | 0.0 | 6.4 | 0.00 | 0.00 | 0.00 | 77 | 1009.0 |
| 20260903113055 | 11 | 309 | 0.0 | 1.6 | 0.00 | 0.00 | 0.00 | 76 | 1009.0 |
| 20260903111551 | 12 | 308 | 0.0 | 1.6 | 0.00 | 0.00 | 0.00 | 74 | 1008.9 |
| 20260903110033 | 12 | 208 | 3.2 | 8.0 | 0.00 | 0.00 | 0.00 | 75 | 1008.8 |
| 20260903104532 | 12 | 342 | 0.0 | 6.4 | 0.00 | 0.00 | 0.00 | 78 | 1008.6 |
| 20260903103020 | 12 | 6 | 0.0 | 4.8 | 0.00 | 0.00 | 0.00 | 83 | 1008.3 |
| 20260903101517 | 12 | 308 | 1.6 | 6.4 | 0.00 | 0.00 | 0.00 | 83 | 1008.4 |
| 20260903100013 | 13 | 281 | 6.4 | 8.0 | 0.00 | 0.00 | 0.00 | 84 | 1008.1 |
| 20260903094512 | 13 | 262 | 4.8 | 9.7 | 0.00 | 0.00 | 0.00 | 84 | 1007.9 |
| 20260903093011 | 13 | 269 | 6.4 | 11.3 | 0.00 | 0.00 | 0.00 | 85 | 1007.9 |
| 20260903091508 | 13 | 246 | 3.2 | 9.7 | 0.00 | 0.00 | 0.00 | 84 | 1007.9 |
| 20260903090006 | 14 | 203 | 4.8 | 9.7 | 0.00 | 0.00 | 0.00 | 84 | 1007.9 |
| 20260903084506 | 14 | 208 | 6.4 | 9.7 | 0.00 | 0.00 | 0.00 | 85 | 1007.9 |
| 20260903083048 | 14 | 204 | 6.4 | 9.7 | 0.00 | 0.00 | 0.00 | 85 | 1007.8 |
| 20260903081547 | 14 | 228 | 3.2 | 6.4 | 0.00 | 0.00 | 0.00 | 84 | 1007.7 |
| 20260903080028 | 14 | 195 | 3.2 | 8.0 | 0.00 | 0.00 | 0.00 | 84 | 1007.6 |
| 20260903074528 | 14 | 173 | 3.2 | 9.7 | 0.00 | 0.00 | 0.00 | 85 | 1007.5 |
| 20260903073029 | 15 | 233 | 14.5 | 17.7 | 0.00 | 0.00 | 0.00 | 85 | 1007.2 |
| 20260903071508 | 15 | 232 | 17.7 | 24.1 | 0.00 | 0.00 | 0.00 | 85 | 1006.9 |
| 20260903070054 | 15 | 257 | 14.5 | 22.5 | 0.00 | 0.00 | 0.00 | 83 | 1006.8 |
| 20260903064550 | 15 | 231 | 16.1 | 24.1 | 0.00 | 0.00 | 0.00 | 81 | 1006.8 |
| 20260903063032 | 15 | 271 | 6.4 | 20.9 | 0.00 | 0.00 | 0.00 | 79 | 1007.0 |
| 20260903061549 | 16 | 258 | 12.9 | 30.6 | 0.00 | 0.00 | 0.00 | 78 | 1007.0 |
| 20260903060013 | 16 | 242 | 20.9 | 35.4 | 0.00 | 0.00 | 0.00 | 78 | 1006.5 |
| 20260903054517 | 15 | 239 | 17.7 | 29.0 | 0.00 | 0.00 | 0.00 | 81 | 1006.4 |
| 20260903053054 | 16 | 241 | 30.6 | 46.7 | 0.00 | 0.00 | 0.00 | 77 | 1006.3 |
| 20260903051553 | 16 | 257 | 35.4 | 45.1 | 0.00 | 0.00 | 0.00 | 75 | 1006.4 |
| 20260903050039 | 17 | 269 | 25.7 | 41.8 | 0.00 | 0.00 | 0.00 | 74 | 1006.7 |
| 20260903044545 | 17 | 262 | 29.0 | 40.2 | 0.00 | 0.00 | 0.00 | 74 | 1006.5 |
| 20260903043040 | 16 | 215 | 24.1 | 30.6 | 0.00 | 0.00 | 0.00 | 76 | 1006.6 |
| 20260903041546 | 16 | 211 | 25.7 | 37.0 | 0.00 | 0.00 | 0.00 | 76 | 1006.6 |
| 20260903040037 | 16 | 205 | 20.9 | 29.0 | 0.00 | 0.00 | 0.00 | 75 | 1006.8 |
| 20260903034536 | 17 | 211 | 9.7 | 16.1 | 0.00 | 0.00 | 0.00 | 74 | 1006.7 |
| 20260903033034 | 17 | 201 | 12.9 | 30.6 | 0.00 | 0.00 | 0.00 | 69 | 1006.7 |
| 20260903031534 | 17 | 191 | 12.9 | 32.2 | 0.00 | 0.00 | 0.00 | 69 | 1006.7 |
| 20260903030017 | 17 | 235 | 16.1 | 24.1 | 0.00 | 0.00 | 0.00 | 68 | 1006.5 |
| 20260903024517 | 17 | 222 | 22.5 | 40.2 | 0.00 | 0.00 | 0.00 | 66 | 1006.3 |
| 20260903023118 | 17 | 250 | 27.4 | 37.0 | 0.00 | 0.00 | 0.00 | 68 | 1006.2 |
| 20260903021559 | 16 | 256 | 19.3 | 27.4 | 0.00 | 0.00 | 0.00 | 71 | 1006.2 |
| 20260903020058 | 17 | 269 | 17.7 | 35.4 | 0.00 | 0.00 | 0.00 | 69 | 1006.3 |
| 20260903014606 | 18 | 271 | 19.3 | 32.2 | 0.00 | 0.00 | 0.00 | 62 | 1006.3 |
| 20260903013059 | 18 | 269 | 29.0 | 40.2 | 0.00 | 0.00 | 0.00 | 59 | 1006.3 |
| 20260903011611 | 18 | 264 | 30.6 | 45.1 | 0.00 | 0.00 | 0.00 | 58 | 1006.2 |
| 20260903010101 | 18 | 273 | 29.0 | 38.6 | 0.00 | 0.00 | 0.00 | 57 | 1006.0 |
| 20260903004544 | 18 | 267 | 35.4 | 57.9 | 0.00 | 0.00 | 0.00 | 55 | 1005.9 |
| 20260903003100 | 19 | 270 | 38.6 | 51.5 | 0.00 | 0.00 | 0.00 | 54 | 1005.8 |
| 20260903001553 | 18 | 263 | 35.4 | 46.7 | 0.00 | 0.00 | 0.00 | 56 | 1005.9 |
| 20260903000046 | 18 | 280 | 22.5 | 38.6 | 0.00 | 0.00 | 0.00 | 57 | 1006.1 |
| 20260902234523 | 20 | 256 | 32.2 | 45.1 | 0.00 | 0.00 | 0.00 | 49 | 1005.9 |
| 20260902233023 | 20 | 277 | 35.4 | 56.3 | 0.00 | 0.00 | 0.00 | 46 | 1005.9 |
| 20260902231504 | 21 | 268 | 35.4 | 57.9 | 0.00 | 0.00 | 0.00 | 45 | 1006.0 |
| 20260902230004 | 20 | 264 | 25.7 | 41.8 | 0.00 | 0.00 | 0.00 | 50 | 1006.1 |